Home > Time Zones > World Clock > Weather > U.S.A. > Napa > Past weeks

Flag for U.S.A. Weather past 2 weeks in Napa, California, U.S.A.

Now
69 °F

Clear.


Feels Like: 69 °F
Forecast: 57 / 81 °F
Wind: 8 mph from South

Location: Napa County Airport

Current Time: Sep 1, 2014 at 9:49:30 PM

Latest Report: Sep 1, 2014 at 8:54 PM


Visibility: 10 mi

Pressure: 29.73 "Hg

Humidity: 76%

Dew point: 61 °F

Location of NapaLocation

Historic Weather in Napa — Graph

°F

Napa temperature yesterday

Maximum temperature yesterday: 83 °F (at 2:54 PM)
Minimum temperature yesterday: 51 °F (at 5:54 AM)
Average temperature yesterday: 67 °F

Past Weeks' High & Low Weather Summary

 TemperatureHumidityPressure
High90 °F (Sep 1, 2:54 PM)100% (Aug 27, 4:54 AM)30.05 "Hg (Aug 27, 4:54 AM)
Low51 °F (Aug 30, 6:54 AM)26% (Aug 30, 4:54 PM)29.71 "Hg (Sep 1, 5:54 PM)
Average65 °F76%29.87 "Hg
* Reported Aug 17 8:54 PM — Sep 1 8:54 PM, Napa, Weather by CustomWeather, © 2014

Note: Actual official high and low records may vary slightly from our data, if they occured in-between our weather recording intervals... More about our weather records

Advertising

Napa weather history for previous 24 hours

 ConditionsComfort  
Time TempWeatherWind HumidityBarometerVisibility
8:54 PM
Sep 1
69 °FClear.8 mph76%29.73 "Hg10 mi
7:54 PM73 °FSunny.10 mph64%29.71 "Hg10 mi
6:54 PM79 °FSunny.7 mph50%29.71 "Hg10 mi
5:54 PM83 °FSunny.9 mph46%29.71 "Hg10 mi
4:54 PM87 °FSunny.13 mph39%29.71 "Hg10 mi
3:54 PM89 °FSunny.14 mph34%29.72 "Hg10 mi
2:54 PM90 °FSunny.10 mph31%29.74 "Hg10 mi
1:54 PM86 °FSunny.N/A35%29.77 "Hg10 mi
12:54 PM82 °FSunny.8 mph41%29.79 "Hg10 mi
11:54 AM75 °FSunny.6 mph55%29.82 "Hg10 mi
10:54 AM71 °FSunny.No wind66%29.83 "Hg10 mi
9:54 AM68 °FSunny.6 mph70%29.83 "Hg10 mi
8:54 AM64 °FSunny.No wind84%29.83 "Hg10 mi
7:54 AM60 °FSunny.3 mph93%29.82 "Hg9 mi
6:54 AM53 °FFog.No wind96%29.82 "Hg6 mi
5:54 AM53 °FClear.No wind96%29.80 "Hg8 mi
4:54 AM55 °FClear.No wind96%29.80 "Hg8 mi
3:54 AM57 °FClear.No wind96%29.80 "Hg9 mi
2:54 AM59 °FClear.No wind93%29.80 "Hg10 mi
1:54 AM60 °FClear.5 mph93%29.80 "Hg10 mi
12:54 AM61 °FClear.6 mph90%29.81 "Hg10 mi
11:54 PM
Aug 31
62 °FClear.7 mph86%29.81 "Hg10 mi
10:54 PM63 °FClear.3 mph84%29.81 "Hg10 mi
9:54 PM63 °FClear.8 mph84%29.81 "Hg10 mi
Weather by CustomWeather, © 2014

See weather overviewHow to use our weather pages